[Iaude] MPEC A122: 2019 AM5 [a=1.90,e=0.71,i=9.9,H=20.4]

mpec at mpcdb1.cfa.harvard.edu mpec at mpcdb1.cfa.harvard.edu
Tue Jan 8 13:35:17 EST 2019


M.P.E.C. 2019-A122                               Issued 2019 Jan. 8, 18:31 UT
 
     The Minor Planet Electronic Circulars contain information on unusual
         minor planets and routine data on comets.  They are published
    on behalf of Division F of the International Astronomical Union by the
          Minor Planet Center, Smithsonian Astrophysical Observatory,
                          Cambridge, MA 02138, U.S.A.

             Prepared using the Tamkin Foundation Computer Network

                              MPC at CFA.HARVARD.EDU
            URL https://www.minorplanetcenter.net/    ISSN 1523-6714


                                   2019 AM5
 
Observations:
     K19A05M* C2019 01 03.57565 09 03 57.027+15 07 20.81         21.2 wUEA122F51
     K19A05M  C2019 01 03.58748 09 03 54.871+15 07 37.45         21.2 wUEA122F51
     K19A05M  C2019 01 03.59922 09 03 52.726+15 07 53.84         21.2 wUEA122F51
     K19A05M  C2019 01 03.61097 09 03 50.591+15 08 10.55         21.3 wUEA122F51
     K19A05M KC2019 01 04.28999709 01 51.11 +15 24 05.5          21.2 VuEA122H21
     K19A05M KC2019 01 04.29852909 01 49.60 +15 24 17.4          21.1 VuEA122H21
     K19A05M KC2019 01 04.30841309 01 47.82 +15 24 31.9          21.1 VuEA122H21
     K19A05M ^C2019 01 04.54109 09 01 06.344+15 30 03.38         21.29GVEA122568
     K19A05M ^C2019 01 04.54341 09 01 05.912+15 30 06.62         21.28GVEA122568
     K19A05M  C2019 01 08.35481 08 49 49.69 +16 56 41.0          21.3 GVEA122V06
     K19A05M  C2019 01 08.35719 08 49 49.29 +16 56 44.5          21.2 GVEA122V06
     K19A05M  C2019 01 08.35957 08 49 48.85 +16 56 47.0                VEA122V06
 
Observer details:
568 Mauna Kea.  Observer Y. Ramanjooloo.  Measurers R. Weryk, Y. Ramanjooloo,
    R. Wainscoat.  2.24-m University of Hawaii reflector + CCD.
F51 Pan-STARRS 1, Haleakala.  Observers J. Bulger, T. Lowe, A. Schultz,
    M. Willman.  Measurers K. Chambers, S. Chastel, L. Denneau, J. Fairlamb,
    H. Flewelling, M. Huber, C.-C. Lin, E. Magnier, Y. Ramanjooloo,
    R. Wainscoat, R. Weryk.  1.8-m Ritchey-Chretien + CCD.
H21 Astronomical Research Observatory, Westfield.  Observer R. Holmes.
    Measurers S. Foglia, L. Buzzi, T. Linder, R. Holmes.  0.76-m f/3.0
    astrograph + CCD.
V06 Catalina Sky Survey-Kuiper.  Observer A. R. Gibbs.  Measurers
    B. M. Africano, E. J. Christensen, G. A. Farneth, D. C. Fuls, A. R. Gibbs,
    A. D. Grauer, H. Groeller, R. A. Kowalski, S. M. Larson, G. J. Leonard,
    R. L. Seaman, F. C. Shelly.  1.55-m reflector + CCD.
 
Orbital elements:
2019 AM5                                                 Earth MOID = 0.0905 AU
Epoch 2019 Apr. 27.0 TT = JDT 2458600.5                 MPC
M  77.85900              (2000.0)            P               Q
n   0.37687771     Peri.  232.89927     +0.97740227     +0.14803487
a   1.8981728      Node   118.13286     -0.09381908     +0.94347626
e   0.7133597      Incl.    9.85265     -0.18942750     +0.29654381
P   2.62           H   20.4           G   0.15           U   9
Residuals in seconds of arc
190103 F51  0.4+  0.0     190104 H21  0.2-  0.1-    190104 568  0.5+  0.2+
190103 F51  0.4+  0.1-    190104 H21  0.4+  0.3-    190108 V06  0.0   0.1-
190103 F51  0.3+  0.2-    190104 H21  0.7+  0.3+    190108 V06  0.5+  0.2+
190103 F51  0.3+  0.1-    190104 568  0.6+  0.2+    190108 V06  0.4+  0.4-

Ephemeris:
2019 AM5                 a,e,i = 1.90, 0.71, 10                  q = 0.5441
Date    TT    R. A. (2000) Decl.     Delta      r     Elong.  Phase     V
2018 12 09    10 06 39.4 +05 02 47   0.5579  1.2487   104.6    49.8    21.5
...
2018 12 24    09 33 38.5 +10 49 18   0.5757  1.4213   129.6    32.2    21.3
...
2019 01 01    09 11 29.3 +14 05 41   0.5985  1.5087   143.9    22.6    21.3
...
2019 01 07    08 53 50.0 +16 26 33   0.6257  1.5723   154.8    15.4    21.2
2019 01 08    08 50 52.6 +16 48 54   0.6312  1.5827   156.6    14.3    21.2
2019 01 09    08 47 55.6 +17 10 51   0.6370  1.5930   158.4    13.1    21.2
...
2019 01 15    08 30 38.8 +19 12 47   0.6780  1.6542   169.0     6.5    21.1
...
2019 01 23    08 09 47.7 +21 25 28   0.7495  1.7331   177.2     1.6    21.2
...
2019 02 07    07 41 15.2 +24 04 21   0.9318  1.8733   155.2    12.7    22.4

A. U. Tomatic                (C) Copyright 2019 MPC           M.P.E.C. 2019-A122



More information about the Iaude mailing list